Location: ?????????
(55.6553°N, 38.9075°E)
Time: 21:13:34
(UTC+00:00)

Meteor 1-23 Rocket - Pass Details

Date: 18 October 2019
Orbit: 839 x 886 km, 81.3° (Epoch: 18 November)

Event Time Altitude Azimuth Distance (km) Brightness Sun altitude
Exits shadow 00:42:28 88° 108° (ESE) 849 4.1 -28.0°
Maximum altitude 00:42:28 88° 106° (ESE) 849 4.1 -28.0°
Drops below altitude 10° 00:48:05 10° 15° (NNE) 2,472 7.1 -27.2°
Sets 00:50:31 0° 15° (NNE) 3,413 7.9 -26.9°
